OBJECT F
1 40904U 15049F 15267.70004514 .00001450 00000-0 82773-4 0 9999
2 40904 97.4591 275.7639 0013799 244.5804 115.4509 15.12686664132825
OBJECT J
1 40907U 15049J 15267.70194362 .00002912 00000-0 16899-3 0 9992
2 40907 97.4562 275.7589 0014126 232.6766 127.3685 15.12087821133200
OBJECT M
1 40910U 15049M 15267.70245326 .00004074 00000-0 23736-3 0 9992
2 40910 97.4586 275.7596 0015453 231.5110 128.5250 15.11928478 602
OBJECT N
1 40911U 15049N 15267.70191708 .00003056 00000-0 17731-3 0 9994
2 40911 97.4599 275.7614 0014177 234.0207 126.0217 15.12097212 616
OBJECT P
1 40912U 15049P 15267.69733510 .00004056 00000-0 22517-3 0 9995
2 40912 97.4598 275.7677 0016044 230.0673 129.9665 15.13652642 617
/EX
1
0
The Chinese new Long March 6 (CZ-6) launched 14 objects into orbit on
2015-09-19 at 23:01:14.331 UTC. Of the these 6 have been identified so far,
including the CZ-6 rocket body itself. (Thanks go to Nico Janssen, PA0DLO
and those emailing on AMSAT-BB for their much appreciated efforts.)
The satellites added are as follows:
Object A - NORAD CAT ID 40899
Object B - NORAD CAT ID 40900
Object C - NORAD CAT ID 40901
Object D - NORAD CAT ID 40902
XW-2A - NORAD CAT ID 40903 (Object E)
Object F - NORAD CAT ID 40904
XW-2F - NORAD CAT ID 40905 (Object G)
XW-2C - NORAD CAT ID 40906 (Object H)
Object J - NORAD CAT ID 40907
LILACSAT-2- NORAD CAT ID 40908 (Object K)
XW-2E - NORAD CAT ID 40909 (Object L)
Object M - NORAD CAT ID 40910
Object N - NORAD CAT ID 40911
Object P - NORAD CAT ID 40912
Note there are no OBJECT I or OBJECT O in the Spacetrack list. I assume,
because of the similarity between I and 1 and between O and 0 (zero).
The CZ-6 rocket body is NORAD CAT ID 40913 and has not been included in the
KEP distribution.
1
0
SB KEPS @ AMSAT $ORB15260.N
2Line Orbital Elements 15260.AMSAT
HR AMSAT ORBITAL ELEMENTS FOR AMATEUR SATELLITES IN NASA FORMAT
FROM WA5QGD FORT WORTH,TX September 17, 2015
BID: ORB15260.N
DECODE 2-LINE ELSETS WITH THE FOLLOWING KEY:
1 AAAAAU 00 0 0 BBBBB.BBBBBBBB .CCCCCCCC 00000-0 00000-0 0 DDDZ
2 AAAAA EEE.EEEE FFF.FFFF GGGGGGG HHH.HHHH III.IIII JJ.JJJJJJJJKKKKKZ
KEY: A-CATALOGNUM B-EPOCHTIME C-DECAY D-ELSETNUM E-INCLINATION F-RAAN
G-ECCENTRICITY H-ARGPERIGEE I-MNANOM J-MNMOTION K-ORBITNUM Z-CHECKSUM
TO ALL RADIO AMATEURS BT
AO-07
1 07530U 74089B 15260.82358953 -.00000046 00000-0 -12214-4 0 9996
2 07530 101.5324 233.7108 0012261 121.1076 354.7486 12.53616405868863
FO-29
1 24278U 96046B 15260.80137167 -.00000029 00000-0 60974-5 0 9998
2 24278 98.5522 217.1186 0350209 190.5662 207.8262 13.53056392942559
SO-33
1 25509U 98061B 15260.78882623 .00000211 00000-0 28391-4 0 9994
2 25509 31.4319 86.4255 0347683 165.3605 195.7385 14.30060307882685
RS-22
1 27939U 03042A 15260.75947908 .00000221 00000-0 48454-4 0 9996
2 27939 97.8531 58.5994 0014284 93.5980 266.6861 14.66148421639750
HO-68
1 36122U 09072B 15260.81834729 -.00000060 00000-0 -43517-4 0 9990
2 36122 100.1846 302.2824 0006814 265.2053 94.8274 13.16329291276645
AO-73
1 39444U 13066AE 15259.74956562 .00000714 00000-0 97454-4 0 9991
2 39444 97.7216 319.1184 0059323 195.7750 164.1616 14.80453206 96969
EO-79
1 40025U 14033R 15260.79149998 .00000698 00000-0 83463-4 0 9993
2 40025 97.9421 161.1507 0011464 238.3570 121.6528 14.87361941 67552
UO-11
1 14781U 84021B 15260.77406199 .00000289 00000-0 42362-4 0 9993
2 14781 97.7917 315.5315 0009836 123.7496 236.4656 14.82504942695746
AO-16
1 20439U 90005D 15260.81718640 .00000053 00000-0 35589-4 0 9993
2 20439 98.5447 195.6717 0009704 245.0680 138.8623 14.32568965340005
LO-19
1 20442U 90005G 15259.89803369 .00000026 00000-0 25355-4 0 9996
2 20442 098.5154 194.0444 0010750 234.4991 125.5191 14.32759149340014
AO-27
1 22825U 93061C 15259.86490394 .00000047 00000-0 35701-4 0 9994
2 22825 98.7178 210.0392 0009281 45.5736 337.1875 14.29902699146048
IO-26
1 22826U 93061D 15260.80617571 .00000038 00000-0 31775-4 0 9996
2 22826 98.7121 211.1378 0009650 35.2108 324.9710 14.30221807146322
GO-32
1 25397U 98043D 15260.11070753 .00000004 00000-0 20372-4 0 9990
2 25397 98.5286 207.7101 0002399 72.2184 352.6305 14.23559756892876
NO-44
1 26931U 01043C 15259.75277016 .00000011 00000-0 36121-4 0 9995
2 26931 67.0513 300.8947 0006192 275.4954 84.5441 14.30341860728890
SO-50
1 27607U 02058C 15260.18979448 .00000198 00000-0 48842-4 0 9999
2 27607 64.5540 277.8487 0083271 270.6904 88.4657 14.74842396684857
CO-55
1 27844U 03031E 15259.94768164 .00000094 00000-0 62277-4 0 9990
2 27844 098.6965 267.1712 0010469 041.1553 319.0412 14.21844823633431
CO-57
1 27848U 03031J 15260.70463209 .00000073 00000-0 53542-4 0 9994
2 27848 98.7063 267.8726 0010450 46.3019 7.0434 14.21486217633494
AO-51
1 28375U 04025K 15260.82585344 .00000092 00000-0 40112-4 0 9992
2 28375 98.2981 198.6356 0083766 50.3421 310.5120 14.41694559589841
CP3
1 31129U 07012N 15260.16909483 .00000517 00000-0 12066-3 0 9991
2 31129 97.9913 221.9969 0097242 27.8907 92.3200 14.55939494446509
CO-65
1 32785U 08021C 15260.38143097 .00000599 00000-0 72489-4 0 9992
2 32785 97.6401 300.5132 0014775 119.4938 2.6386 14.87060271399931
PRISM
1 33493U 09002B 15260.81780556 .00001379 00000-0 13607-3 0 9997
2 33493 98.2441 102.7410 0016962 29.6310 330.5847 14.93699872360403
SOHLA-1
1 33496U 09002E 15260.38577949 .00000173 00000-0 36179-4 0 9993
2 33496 98.2248 29.1191 0005388 222.6318 201.9981 14.71424188356735
TISAT-1
1 36799U 10035E 15260.83927649 .00001104 00000-0 12393-3 0 9992
2 36799 98.0199 2.3312 0011547 262.3780 193.6058 14.88834225280747
STUDSAT
1 36801U 10035G 15260.80764113 .00011094 00000-0 60161-3 0 9993
2 36801 98.0712 25.6272 0006129 177.4316 182.6947 15.14751677281987
ALMASAT-1
1 38078U 12006B 15260.72814666 .00035335 34041-5 58682-3 0 9997
2 38078 69.4540 6.3297 0455704 129.2391 235.0146 14.84154818188748
CUBEBUG-1
1 39153U 13018D 15260.81811042 .00000505 00000-0 74807-4 0 9993
2 39153 98.0140 344.9106 0016241 317.2663 42.7284 14.79397191129172
ESTCUBE-1
1 39161U 13021C 15260.69572799 .00000472 00000-0 84524-4 0 9995
2 39161 98.0690 342.8041 0010401 27.4060 332.7693 14.71298069126842
DUCHIFAT-1
1 40021U 14033M 15260.69146905 .00001069 00000-0 12148-3 0 9997
2 40021 97.9442 161.5440 0012073 238.9311 121.0721 14.88344070 67562
NANOSATCBR1
1 40024U 14033Q 15260.77607096 .00000896 00000-0 10396-3 0 9992
2 40024 97.9425 161.3329 0011302 237.6797 122.3325 14.87887699 67560
DTUSAT-2
1 40030U 14033W 15260.70553512 .00000717 00000-0 86279-4 0 9991
2 40030 97.9407 160.7355 0010968 231.0344 128.9895 14.86988689 67522
ANTELSAT
1 40034U 14033AA 15260.64185902 .00000558 00000-0 92705-4 0 9996
2 40034 97.9312 150.6028 0059363 182.3005 177.7964 14.72887469 66909
MET-2/21
1 22782U 93055A 15260.35807362 .00000065 00000-0 45223-4 0 9992
2 22782 82.5521 170.5372 0023711 63.6628 75.5363 13.83777369113341
OKEAN-4
1 23317U 94066A 15260.22063765 .00000510 00000-0 54290-4 0 9996
2 23317 82.5410 358.9697 0020702 28.8860 352.9032 14.86818855130987
NOAA-14
1 23455U 94089A 15260.46580579 .00000006 00000-0 26082-4 0 9995
2 23455 98.7476 339.9997 0009644 171.1045 248.9618 14.14052499 68576
NOAA-15
1 25338U 98030A 15260.51773314 .00000049 00000-0 39557-4 0 9992
2 25338 98.7772 259.2365 0009459 259.8763 100.1349 14.25660562901995
